User: anonymous   Login
Location: Unspecified
(50.7693°N, 0.0000°E)
Time: 19:59:40
(UTC+00:00)
Language:

Explorer 7 - Orbit

View from above orbital plane
View from above orbital plane
View from above satellite
View from above satellite

Ground track
Ground track

The orbit data is extracted from the following two-line orbital elements,

1    22U 59009A   19169.54328355 -.00000123  00000-0  14002-4 0  9996
2    22  50.2859  13.8726 0140142 304.8758  53.9081 14.94875522170730
Epoch (UTC): 18 June 2019 13:02:19
Eccentricity: 0.0140142
inclination: 50.2859°
perigee height: 485 km
apogee height: 680 km
right ascension of ascending node: 13.8726°
argument of perigee: 304.8758°
revolutions per day: 14.94875522
mean anomaly at epoch: 53.9081°
orbit number at epoch: 17073

The dashed part of the orbit path shows where the satellite is in the earth's shadow,  

DLR